Location: College Park
(38.9810°N, 76.9370°W)
Time: 10:01:16

N. Korean satellite - Pass Details

Date: 07 January 2018
Orbit: 460 x 512 km, 97.2° (Epoch: 21 March)

Event Time Altitude Azimuth Distance (km) Brightness Sun altitude
Rises 17:47:21 0° 157° (SSE) 2,606 10.3 -8.9°
Reaches altitude 10° 17:49:29 10° 152° (SSE) 1,721 9.3 -9.3°
Maximum altitude 17:53:06 53° 75° (ENE) 629 6.7 -9.9°
Drops below altitude 10° 17:56:41 10° 359° (N) 1,711 9.1 -10.6°
Sets 17:58:47 0° 354° (N) 2,590 10.1 -11.0°
